This is the latest recevied weather packets stored in our database for station/object XW7RMR. If no packets are shown the sender has not sent any weather packets the latest 10 day(s).
| Time | Temp. | Humidity | Pressure | Rain* | Wind** | Luminosity | Snow |
|---|---|---|---|---|---|---|---|
| 1788134017 | 74° F | 48% | 761.8 mmHg | 0 in | - | 363 W/m² | - |
| 1788133712 | 74° F | 48% | 761.6 mmHg | 0 in | - | 340 W/m² | - |
| 1788133408 | 74° F | 47% | 761.7 mmHg | 0 in | - | 411 W/m² | - |
| 1788133104 | 74° F | 47% | 761.8 mmHg | 0 in | - | 431 W/m² | - |
| 1788132799 | 74° F | 48% | 761.8 mmHg | 0 in | - | 447 W/m² | - |
| 1788132495 | 74° F | 48% | 761.9 mmHg | 0 in | - | 431 W/m² | - |
| 1788132190 | 74° F | 48% | 761.8 mmHg | 0 in | - | 442 W/m² | - |
| 1788131887 | 73° F | 49% | 761.9 mmHg | 0 in | - | 467 W/m² | - |
| 1788131587 | 74° F | 47% | 762 mmHg | 0 in | - | 505 W/m² | - |
| 1788131281 | 73° F | 48% | 762 mmHg | 0 in | - | 493 W/m² | - |
| 1788130977 | 74° F | 47% | 762 mmHg | 0 in | - | 522 W/m² | - |
| 1788130676 | 74° F | 48% | 762.1 mmHg | 0 in | - | 527 W/m² | - |
| 1788130371 | 75° F | 48% | 762.3 mmHg | 0 in | - | 540 W/m² | - |
| 1788130070 | 74° F | 47% | 762.1 mmHg | 0 in | - | 551 W/m² | - |
| 1788129766 | 73° F | 48% | 762.2 mmHg | 0 in | - | 561 W/m² | - |
| 1788129462 | 73° F | 48% | 762.4 mmHg | 0 in | - | 570 W/m² | - |
| 1788129158 | 72° F | 48% | 762.5 mmHg | 0 in | - | 579 W/m² | - |
| 1788128852 | 73° F | 48% | 762.6 mmHg | 0 in | - | 589 W/m² | - |
| 1788128547 | 73° F | 47% | 762.7 mmHg | 0 in | - | 600 W/m² | - |
| 1788128243 | 73° F | 48% | 762.7 mmHg | 0 in | - | 609 W/m² | - |
| 1788127940 | 73° F | 46% | 762.7 mmHg | 0 in | - | 621 W/m² | - |
| 1788127635 | 73° F | 47% | 762.9 mmHg | 0 in | - | 631 W/m² | - |
| 1788127334 | 73° F | 48% | 762.9 mmHg | 0 in | - | 639 W/m² | - |
| 1788127033 | 73° F | 47% | 763.1 mmHg | 0 in | - | 645 W/m² | - |
| 1788126727 | 72° F | 48% | 763 mmHg | 0 in | - | 650 W/m² | - |
* Rain latest hour (hover to see other rain measurements)
** Current wind speed in m/s (hover to see current wind gust speed)